Regional Weather Roundup
Issued by NWS

Home | Current Version | Previous Version | Text Only | Print | Product List | Glossary On
Versions: 1 2 3 4 5 6 7 8 9 10 11 12 13 14 15 16 17 18 19 20 21 22 23 24 25 26 27
000
ASUS46 KSEW 222110
RWRWA

WASHINGTON REGIONAL WEATHER ROUNDUP
NATIONAL WEATHER SERVICE SEATTLE WA
200 PM PDT SAT JUL 22 2017

NOTE:"FAIR" INDICATES FEW OR NO CLOUDS BELOW 12,000 FEET WITH NO
SIGNIFICANT WEATHER AND/OR OBSTRUCTIONS TO VISIBILITY.

WAZ507-509-555>559-222200-
SEATTLE, TACOMA, EVERETT, AND VICINITY

CITY           SKY/WX    TMP DP  RH WIND       PRES   REMARKS
EVERETT        MOSUNNY   77  57  50 W7        30.17F
BOEING FIELD   MOSUNNY   81  62  52 VRB3      30.14F
RENTON         SUNNY     81  61  50 CALM      30.14F
SEATAC AIRPORT MOSUNNY   80  60  50 S8        30.16F
JBLM-MCCHORD   SUNNY     81  65  57 N10       30.15F
PUYALLUP       FAIR      84  61  45 VRB3      30.15F
BREMERTON      SUNNY     81  62  52 W10       30.15F
JBLM-FT LEWIS  SUNNY     82  65  57 W7        30.14F
TACOMA NARROWS MOSUNNY   78  61  55 NW7       30.15F
$$

WAZ001-503-506-510-514-515-222200-
NORTH INTERIOR

CITY           SKY/WX    TMP DP  RH WIND       PRES   REMARKS
BELLINGHAM     CLOUDY    74  62  66 NW8       30.18F
FRIDAY HARBOR  PTSUNNY   76  56  49 VRB5      30.19F
EASTSOUND      PTSUNNY   68  59  73 NW5       30.19F
PORT ANGELES   CLOUDY    67  55  65 N7        30.20F
EDIZ HOOK      MOCLDY    63  54  72 NW8       30.20S
PORT TOWNSEND  FAIR      72  57  60 NW10      30.17S
NAS WHIDBEY    PTSUNNY   73  53  49 NW8       30.21F
ARLINGTON      NOT AVBL
BURLINGTON     PTSUNNY   75  61  60 W8        30.17S
$$

WAZ020-022-039-040-504-511-512-222200-
SOUTHWEST INTERIOR

CITY           SKY/WX    TMP DP  RH WIND       PRES   REMARKS
SHELTON        SUNNY     81  62  52 SW12G20   30.13F
OLYMPIA        MOSUNNY   82  63  52 W5        30.14F
CHEHALIS       FAIR      84  64  51 CALM      30.14F
KELSO          SUNNY     84  64  50 VRB6      30.13F
VANCOUVER      SUNNY     85  63  47 VRB5      30.10F
SCAPPOOSE, OR  SUNNY     86  62  44 N6        30.10F
PORTLAND, OR   MOSUNNY   85  62  46 W10       30.10F
$$

WAZ021-516-517-222200-
WASHINGTON COAST

CITY           SKY/WX    TMP DP  RH WIND       PRES   REMARKS
FORKS          LGT RAIN  64  63  96 SW5       30.20S FOG
HOQUIAM        CLOUDY    69  64  84 SW13      30.19F
ASTORIA, OR    SUNNY     74  63  68 W8        30.16F
$$

WAZ019-023-024-040-567>569-222200-
CASCADE MOUNTAINS AND COLUMBIA GORGE

CITY           SKY/WX    TMP DP  RH WIND       PRES   REMARKS
STAMPEDE PASS  MOSUNNY   73  55  53 MISG      30.27F
TROUTDALE, OR  SUNNY     86  61  42 CALM      30.09F
HOOD RIVER, OR CLEAR     90  55  31 NW5       30.08F
THE DALLES, OR SUNNY     93  54  26 NW8       30.04F HX  91
$$

WAZ026-027-041>044-520-521-222200-
EAST SLOPES

CITY           SKY/WX    TMP DP  RH WIND       PRES   REMARKS
OMAK           SUNNY     91  47  21 S9        30.06F
WENATCHEE      SUNNY     88  51  28 E6        30.06F
ELLENSBURG     SUNNY     91  54  28 SW8       30.11F
YAKIMA         SUNNY     91  50  24 VRB5      30.09F
SUNNYSIDE ARPT   N/A     85  51  30 CALM      30.08F
YAKIMA TC      FAIR      89  48  24 SW8G18    30.07F
$$

WAZ028-034-035-222200-
COLUMBIA BASIN

CITY           SKY/WX    TMP DP  RH WIND       PRES   REMARKS
EPHRATA        SUNNY     88  50  27 S12G18    30.09F
MOSES LAKE     SUNNY     90  51  26 SW10      30.10F
PASCO          SUNNY     90  53  28 VRB5      30.07F
RICHLAND ARPT  CLEAR     92  50  23 SE6       30.06F
HERMISTON, OR  SUNNY     89  47  23 VRB5      30.07F
$$

WAZ036>038-222200-
NORTHEAST WASHINGTON

CITY           SKY/WX    TMP DP  RH WIND       PRES   REMARKS
SPOKANE GEIGER MOSUNNY   84  45  25 W10       30.16F
SPOKANE FELTS  SUNNY     86  44  23 VRB5      30.14F
FAIRCHILD AFB  SUNNY     84  46  26 SW5       30.16R
COEURDALENE,ID SUNNY     84  47  27 VRB7      30.16F
DEER PARK      SUNNY     85  44  23 W8        30.15F
$$

WAZ029>033-222200-
SOUTHEAST WASHINGTON

CITY           SKY/WX    TMP DP  RH WIND       PRES   REMARKS
PULLMAN        SUNNY     83  43  24 W6        30.19F
LEWISTON, ID   SUNNY     89  43  20 CALM      30.12F
WALLA WALLA    SUNNY     90  42  18 N5        30.10F
PENDLETON, OR  SUNNY     89  38  16 CALM      30.10F
$$




USA.gov is the U.S. government's official web portal to all federal, state and local government web resources and services.